FW5955 Weather Reports


time (UTC)temp
C
wind
direction
speed
KPH
gust
KPH
rain 1hr
cm
rain 24hr
cm
rain mn
cm
humidity
%
barometer
mb
20260905130050 16 49 3.2 16.1 0.00 0.43 0.13 93 998.6
20260905124550 16 79 6.4 20.9 0.03 0.79 0.13 93 998.6
20260905123048 16 290 6.4 16.1 0.08 0.79 0.13 93 998.7
20260905121548 16 342 3.2 22.5 0.08 0.79 0.13 94 998.5
20260905120047 16 257 3.2 14.5 0.05 0.76 0.10 94 998.1
20260905114559 15 108 1.6 6.4 0.05 0.86 0.10 94 998.1
20260905113046 15 255 1.6 8.0 0.00 0.79 0.05 93 998.0
20260905111547 16 238 1.6 9.7 0.00 0.79 0.05 94 998.1
20260905110046 15 37 1.6 12.9 0.00 0.79 0.05 94 997.8
20260905104549 15 57 3.2 14.5 0.00 0.89 0.05 94 997.8
20260905103047 15 261 1.6 8.0 0.00 0.89 0.05 94 997.7
20260905101544 15 359 1.6 9.7 0.00 0.89 0.05 94 997.8
20260905100044 15 264 0.0 9.7 0.00 0.89 0.05 94 997.8
20260905094558 15 332 0.0 6.4 0.00 0.99 0.05 94 997.7
20260905093044 15 226 0.0 6.4 0.00 0.99 0.05 94 997.8
20260905091545 15 15 0.0 8.0 0.00 0.99 0.05 94 997.8
20260905090039 15 323 1.6 6.4 0.03 0.99 0.05 94 997.8
20260905084542 15 266 0.0 6.4 0.03 1.42 0.05 94 997.8
20260905083035 15 128 1.6 8.0 0.05 1.42 0.05 93 997.7
20260905081534 16 250 1.6 9.7 0.03 1.42 0.03 94 997.7
20260905080048 16 42 0.0 6.4 0.03 1.42 0.03 94 997.7
20260905074531 16 260 0.0 1.6 0.03 1.65 0.03 94 997.6
20260905073040 16 261 0.0 1.6 0.00 1.65 0.00 93 997.7
20260905071530 16 273 1.6 4.8 0.00 1.65 0.00 93 997.8
20260905070039 16 263 0.0 4.8 0.00 1.65 0.00 93 997.8
20260905064528 16 263 1.6 3.2 0.00 1.65 0.00 93 997.9
20260905063025 16 237 0.0 3.2 0.00 1.65 0.00 93 998.1
20260905061536 16 252 0.0 0.0 0.00 1.65 0.00 93 998.2
20260905060022 16 252 0.0 1.6 0.00 1.65 0.00 93 998.4
20260905054520 16 296 0.0 3.2 0.00 1.68 0.00 93 998.7
20260905053021 16 351 0.0 3.2 0.00 1.68 0.00 93 998.7
20260905051516 16 320 0.0 8.0 0.00 1.68 0.00 93 998.7
20260905050015 16 267 1.6 8.0 0.00 1.68 0.00 93 998.8
20260905044517 17 345 0.0 4.8 0.00 1.68 0.00 93 998.9
20260905043012 17 258 0.0 3.2 0.00 1.68 0.00 93 999.0
20260905041512 17 283 0.0 4.8 0.00 1.68 0.00 93 999.1
20260905040014 17 255 0.0 4.8 0.00 1.68 0.00 93 999.4
20260905034510 17 253 0.0 1.6 0.00 1.73 0.00 94 999.6
20260905033004 17 47 0.0 3.2 0.00 1.73 0.00 94 999.9
20260905031502 16 316 0.0 0.0 0.00 1.73 0.00 93 1000.2
20260905024559 17 316 0.0 1.6 0.00 1.75 1.73 93 1000.1
20260905023102 17 260 0.0 4.8 0.00 1.75 1.73 93 1000.4
20260905021554 17 285 0.0 3.2 0.00 1.75 1.73 93 1000.7
20260905020051 17 351 0.0 6.4 0.00 1.75 1.73 93 1000.9
20260905014549 17 259 0.0 4.8 0.00 1.75 1.73 93 1001.1
20260905013055 17 264 0.0 4.8 0.00 1.75 1.73 93 1001.5
20260905011545 17 272 0.0 1.6 0.00 1.75 1.73 93 1001.6
20260905010050 17 230 0.0 1.6 0.00 1.75 1.73 93 1001.7
20260905004542 18 262 0.0 1.6 0.00 1.75 1.73 93 1002.0
20260905003041 18 302 0.0 6.4 0.00 1.75 1.73 93 1002.1
20260905001540 18 304 0.0 4.8 0.00 1.75 1.73 93 1002.2
20260905000040 18 273 0.0 3.2 0.00 1.75 1.73 93 1002.2
20260904234545 18 259 0.0 3.2 0.00 1.75 1.73 93 1002.2
20260904233039 18 262 0.0 8.0 0.00 1.75 1.73 93 1002.1
20260904231538 18 257 0.0 4.8 0.00 1.75 1.73 93 1002.1
20260904230038 18 302 0.0 1.6 0.00 1.75 1.73 93 1002.1
20260904224542 18 260 0.0 1.6 0.00 1.75 1.73 93 1002.1
20260904223036 19 266 0.0 1.6 0.00 1.75 1.73 93 1002.1
20260904221536 19 330 0.0 4.8 0.00 1.75 1.73 93 1002.1
20260904220055 19 268 3.2 11.3 0.00 1.75 1.73 93 1002.1
20260904214537 19 236 6.4 11.3 0.00 1.80 1.73 93 1002.1
20260904213034 19 260 4.8 12.9 0.00 1.80 1.73 93 1002.3
20260904211536 20 260 4.8 14.5 0.00 1.80 1.73 93 1002.4
20260904210040 20 240 8.0 17.7 0.00 1.80 1.73 92 1002.6
20260904204527 20 221 8.0 19.3 0.00 1.83 1.73 92 1002.7
20260904203041 20 244 8.0 16.1 0.00 1.83 1.73 92 1002.8
20260904201525 20 241 4.8 12.9 0.00 1.83 1.73 92 1003.0
20260904200025 20 286 8.0 17.7 0.00 1.83 1.73 92 1003.2
20260904194524 20 214 8.0 14.5 0.00 1.83 1.73 93 1003.1
20260904193022 20 239 8.0 16.1 0.00 1.83 1.73 93 1003.2
20260904191521 20 240 9.7 16.1 0.00 1.83 1.73 92 1003.3
20260904190020 21 214 6.4 17.7 0.00 1.83 1.73 93 1003.2
20260904184524 20 257 8.0 12.9 0.00 1.83 1.73 93 1003.3
20260904183015 20 256 4.8 17.7 0.00 1.83 1.73 93 1003.4
20260904181511 20 245 8.0 14.5 0.00 1.83 1.73 94 1003.7
20260904180008 19 181 6.4 14.5 0.00 1.83 1.73 94 1003.8
20260904174506 19 206 0.0 8.0 0.00 1.83 1.73 94 1003.8
20260904173006 18 183 0.0 8.0 0.00 1.83 1.73 94 1004.0
20260904171501 18 180 3.2 8.0 0.00 1.83 1.73 94 1004.2
20260904170059 18 207 1.6 6.4 0.00 1.83 1.73 94 1004.3
20260904164559 18 172 1.6 9.7 0.00 1.83 1.73 93 1004.4
20260904163056 19 198 4.8 12.9 0.00 1.83 1.73 94 1004.6
20260904161612 19 215 4.8 19.3 0.00 1.83 1.73 94 1004.8
20260904160051 19 245 11.3 20.9 0.03 1.83 1.73 94 1005.1
20260904154550 19 237 12.9 19.3 0.05 1.83 1.73 95 1005.1
20260904153053 18 240 11.3 20.9 0.05 1.83 1.73 95 1005.2
20260904151545 18 186 8.0 22.5 0.23 1.83 1.73 94 1005.2
20260904150051 18 206 8.0 25.7 0.23 1.80 1.70 94 1005.4
20260904144556 18 158 11.3 29.0 0.20 1.78 1.68 94 1005.5
20260904143040 18 181 9.7 27.4 0.23 1.78 1.68 94 1005.7
20260904141539 18 178 14.5 27.4 0.05 1.60 1.50 94 1006.0
20260904140050 18 171 6.4 33.8 0.05 1.57 1.45 94 1006.3
20260904134537 18 161 12.9 35.4 0.23 1.57 1.45 94 1006.4
20260904133035 18 148 8.0 19.3 0.38 1.55 1.42 94 1006.5
20260904131534 18 186 9.7 27.4 0.41 1.55 1.42 94 1006.6